Regional Weather Roundup
Issued by NWS Cleveland, OH

Home | Current Version | Previous Version | Text Only | Print | Product List | Glossary Off
Versions: 1 2 3 4 5 6 7 8 9 10 11 12 13 14 15 16 17 18 19 20 21 22 23 24 25 26 27 28 29 30 31 32 33 34 35 36 37 38 39 40 41 42 43 44 45 46 47 48 49 50

593
ASUS41 KCLE 140810
RWRCLE
OHIO REGIONAL WEATHER ROUNDUP
NATIONAL WEATHER SERVICE WILMINGTON, OH
300 AM EST SUN FEB 14 2016

NOTE: "FAIR" INDICATES FEW OR NO CLOUDS BELOW 12,000 FEET WITH NO
SIGNIFICANT WEATHER AND/OR OBSTRUCTIONS TO VISIBILITY.

OHZ001>008-015>018-024>027-034-035-043-044-140900-
   NORTHWEST OHIO

CITY           SKY/WX    TMP DP  RH WIND       PRES   REMARKS
DEFIANCE       CLOUDY    14   5  67 CALM      30.48F
FINDLAY        FAIR       7   1  76 CALM      30.46S
TOLEDO EXPRESS FAIR       9   2  73 N3        30.48S
TOLEDO EXEC    FAIR      11   0  61 CALM      30.49S
LIMA           FAIR       5   0  79 SW5       30.45S WCI  -4
$$

OHZ009>014-019>023-028>033-038-089-140900-
   NORTHEAST OHIO

CITY           SKY/WX    TMP DP  RH WIND       PRES   REMARKS
CLE-HOPKINS    MOCLDY     5   1  83 SW7       30.49R WCI  -7
CLE-LAKEFRONT  MOCLDY    14  -2  49 NW9       30.47R WCI   2
CUY CO. ARPT   NOT AVBL
LORAIN-ELYRIA  MOCLDY    -2  -6  83 W3        30.47R
ASHTABULA      CLOUDY    10  -1  61 W5        30.42R WCI   2
AKRON-CANTON   FAIR       3  -2  79 W3        30.42R
WOOSTER        CLOUDY     4  -1  80 CALM      30.44R
MANSFIELD      FAIR       5   2  87 W3        30.41F
YOUNGSTOWN     FLURRIES   2  -2  83 SW3       30.41R
$$

OHZ042-051>053-060>062-070>072-077>081-140900-
  SOUTHWEST OHIO

CITY           SKY/WX    TMP DP  RH WIND       PRES   REMARKS
CINC-COVINGTON CLOUDY    14   6  70 E6        30.44F WCI   5
CINC-LUNKEN    FAIR      12   5  73 NE9       30.50F WCI   0
HAMILTON       FAIR      12   3  67 E5        30.49F WCI   4
DAYTON         MOCLDY     7   0  73 CALM      30.46F
WRIGHT-PAT AFB MOCLDY     6   1  79 NE1       30.47F
DAYTON GENERAL FAIR       6  -1  73 NE5       30.45F WCI  -3
WILMINGTON     FAIR       4  -2  76 NE3       30.45F
$$

OHZ036-037-039>041-045>050-054>059-063>069-073>076-082>088-140900-
  CENTRAL AND SOUTHEAST OHIO

CITY           SKY/WX    TMP DP  RH WIND       PRES   REMARKS
COLUMBUS       MOCLDY     6  -2  69 CALM      30.47S
OSU AIRPORT    FAIR       5  -1  76 W3        30.46S
BOLTON FIELD   FAIR       4  -1  78 CALM      30.47S
RICKENBACK AFB FAIR       2  -2  83 S3        30.48S
NEWARK         FAIR       1  -4  79 CALM      30.46S
MARION         FAIR       6  -1  73 W3        30.45S
LANCASTER      FAIR       0  -5  79 CALM      30.47S
ZANESVILLE     FAIR       5   0  79 CALM      30.46S
NEW PHILLY     FAIR       3  32 100 CALM      30.47R
$$




USA.gov is the U.S. government's official web portal to all federal, state and local government web resources and services.